Regional Weather Roundup
Issued by NWS Grand Forks, ND

Home | Current Version | Previous Version | Graphics & Text | Print | Product List | Glossary On
Versions: 1 2 3 4 5 6 7 8 9 10 11 12 13 14 15 16 17 18 19 20 21 22 23 24 25 26 27 28 29 30 31 32 33 34 35 36 37 38 39 40 41 42 43 44 45 46 47 48 49 50
000
ASUS43 KFGF 190031
RWRFGF
PRAIRIE TO PINES  WEATHER ROUNDUP
NATIONAL WEATHER SERVICE EASTERN NORTH DAKOTA/GRAND FORKS ND
700 PM CDT FRI AUG 18 2017

 **SATELLITE DATA USED TO AUGMENT SKY COVER AT AUTOMATED STATIONS**
 *****  WEATHER ACROSS EASTERN NORTH DAKOTA  *****

CITY           SKY/WX    TMP DP  RH WIND       PRES   REMARKS
GRAND FORKS    FAIR      80  59  48 NW5       29.83R
6HR MIN TEMP:  79; 6HR MAX TEMP:  83;

GRAND FRKS AFB FAIR      78  58  48 NW3       29.84S
DEVILS LAKE    FAIR      78  53  41 W5        29.88R
6HR MIN TEMP:  74; 6HR MAX TEMP:  79;

FARGO          FAIR      78  62  57 S5        29.87R
WAHPETON ARPT  FAIR      72  55  56 W5        29.91R
$$

 ***** WEATHER ACROSS CENTRAL AND WESTERN NORTH DAKOTA  *****

CITY           SKY/WX    TMP DP  RH WIND       PRES   REMARKS
BISMARCK       FAIR      80  52  37 NW5       29.91S
6HR MIN TEMP:  76; 6HR MAX TEMP:  83;

MINOT          FAIR      81  50  33 W8        29.87S
6HR MIN TEMP:  79; 6HR MAX TEMP:  83;

JAMESTOWN      FAIR      75  58  55 NW6       29.89S
6HR MIN TEMP:  67; 6HR MAX TEMP:  78;

MINOT AFB      FAIR      82  44  25 NW9       29.85F
GARRISON         N/A     79  50  36 NW6       29.89S
WILLISTON      FAIR      83  50  31 SE5       29.87F
6HR MIN TEMP:  78; 6HR MAX TEMP:  84;

DICKINSON      FAIR      83  48  29 S5        29.91S
6HR MIN TEMP:  78; 6HR MAX TEMP:  84;

HETTINGER      FAIR      82  47  29 SE3       29.94F
6HR MIN TEMP:  78; 6HR MAX TEMP:  85;

$$

 *****  OTHER AIRPORT OBSERVATIONS IN OUR AREA  *****

CITY           SKY/WX    TMP DP  RH WIND       PRES   REMARKS
WALHALLA       FAIR      79  77  94 W6        29.82S
GRAFTON AIRPOR FAIR      77  57  50 NW6       29.84S
VALLEY CITY AR   N/A     75  63  64 W5        29.90F
CANDO          FAIR      75  55  50 N5        29.88S
CAVALIER APRT  FAIR      77  57  50 W7        29.81S
GWINNER        CLEAR     73  63  68 CALM      29.91R
SHEYENNE NWR     N/A     78  63  58 W2        29.95S
ROLLA          FAIR      75  57  53 NW5       29.88S
 ***** THE ABOVE OBSERVATIONS ARE NON NWS ARE NOT QUALITY
       CONTROLLED AND MAY MIS-REPORT RAIN FOR SNOW...
$$

  *****  WEATHER ACROSS NORTHERN MINNESOTA  *****

CITY           SKY/WX    TMP DP  RH WIND       PRES   REMARKS
FLAG ISLAND    FAIR      75  57  53 NW6       29.79S HAZE
WARROAD        FAIR      75  61  60 W5        29.82R
ROSEAU         FAIR      79  57  47 W3        29.82R
HALLOCK        FAIR      81  48  32 NW7       29.81S
THF RVR FALLS  FAIR      77  53  43 NW10      29.85S
6HR MIN TEMP:  76; 6HR MAX TEMP:  80;

BAUDETTE       FAIR      75  58  55 W6        29.81R
6HR MIN TEMP:  66; 6HR MAX TEMP:  80;

WASKISH        FAIR      73  63  68 CALM      29.83R
CROOKSTON      FAIR      79  54  41 N7        29.84S
STEPHEN NDAWN    N/A     79  55  44 W5          N/A
GREENBUSH NDAW   N/A     77  57  50 W3          N/A
$$
  *****  WEATHER ACROSS CENTRAL AND WEST MINNESOTA  *****

CITY           SKY/WX    TMP DP  RH WIND       PRES   REMARKS
FOSSTON        FAIR      68  57  68 S9        29.88S
BEMIDJI        FAIR      67  58  71 SW6       29.87S
PARK RAPIDS    FAIR      67  61  81 NW6       29.89R
6HR MIN TEMP:  59; 6HR MAX TEMP:  80; 6HR PCP:  1.69;

ELBOW LAKE     FAIR      69  60  74 CALM      29.91R HAZE
WADENA         FAIR      68  61  77 W3        29.90R
DETROIT LAKES  DRIZZLE   64  59  82 CALM      29.90S
MOORHEAD       FAIR      70  61  73 SE6       29.89S
FERGUS FALLS   FAIR      70  61  73 CALM      29.89S
MORRIS MN      FAIR      73  63  68 CALM      29.89R
STAPLES        FAIR      68  57  68 CALM      29.89R
$$
  *****  WEATHER ELSEWHERE ACROSS MINNESOTA  *****

CITY           SKY/WX    TMP DP  RH WIND       PRES   REMARKS
DULUTH         FAIR      68  63  84 SW6       29.85S
6HR MIN TEMP:  68; 6HR MAX TEMP:  71;

INTRNTL FALLS  FAIR      72  59  63 SW5       29.80S
6HR MIN TEMP:  72; 6HR MAX TEMP:  80;

ELY            FAIR      70  57  64 CALM      29.83S
CLOQUET        FAIR      66  57  72 W5        29.87R
WHEATON        FAIR      73  59  60 CALM      29.92R
BRAINERD       FAIR      68  61  78 W8        29.88R
6HR MIN TEMP:  60; 6HR MAX TEMP:  75; 6HR PCP:  0.33;

HIBBING        FAIR      67  61  81 W7        29.86R
6HR MIN TEMP:  69; 6HR MAX TEMP:  75;

ALEXANDRIA     FAIR      69  60  73 CALM      29.91F
6HR MIN TEMP:  64; 6HR MAX TEMP:  72; 6HR PCP:  0.03;

SAINT CLOUD    PTSUNNY   69  61  75 W5        29.88F
6HR MIN TEMP:  69; 6HR MAX TEMP:  76;

MINNEAPOLIS    CLOUDY    72  60  66 VRB3      29.89S
6HR MIN TEMP:  65; 6HR MAX TEMP:  75; 6HR PCP:  0.11;

$$

  *****  WEATHER ACROSS SOUTH DAKOTA  *****

CITY           SKY/WX    TMP DP  RH WIND       PRES   REMARKS
SIOUX FALLS    PTSUNNY   77  60  55 NW16G25   29.88R
6HR MIN TEMP:  77; 6HR MAX TEMP:  81;

BROOKINGS      FAIR      71  60  68 NW15      29.91R
WATERTOWN      FAIR      67  60  78 N14       29.93R
6HR MIN TEMP:  66; 6HR MAX TEMP:  77;

HURON          FAIR      74  59  59 N10       29.93R
6HR MIN TEMP:  74; 6HR MAX TEMP:  80;

SISSETON         N/A     73  62  68 NW3       29.91R
ABERDEEN       FAIR      75  60  59 NE6       29.92R
6HR MIN TEMP:  70; 6HR MAX TEMP:  77;

MITCHELL       FAIR      75  60  59 NW12      29.94R
PIERRE         FAIR      82  50  32 N6        29.93F
6HR MIN TEMP:  79; 6HR MAX TEMP:  83;

MOBRIDGE       FAIR      80  59  48 CALM      29.91F
RAPID CITY     FAIR      85  42  22 NW3       29.99S
6HR MIN TEMP:  82; 6HR MAX TEMP:  86;

$$

  *****  SOME WEATHER IN NEARBY STATES *****

CITY           SKY/WX    TMP DP  RH WIND       PRES   REMARKS
GLASGOW MT     FAIR      89  34  14 SE8       29.82F
6HR MIN TEMP:  81; 6HR MAX TEMP:  90;

GREAT FALLS MT FAIR      89  25  10 SW15G30   29.90S
6HR MIN TEMP:  80; 6HR MAX TEMP:  90;

CHEYENNE WY    PTSUNNY   80  41  24 S7        30.18S
6HR MIN TEMP:  76; 6HR MAX TEMP:  85;

SCOTTSBLUFF NE FAIR      87  43  21 E6        30.04S
6HR MIN TEMP:  81; 6HR MAX TEMP:  90;

OMAHA NE       FAIR      86  63  45 W7        29.88S
6HR MIN TEMP:  84; 6HR MAX TEMP:  88;

DES MOINES IA  FAIR      85  61  44 NW5       29.86S
6HR MIN TEMP:  83; 6HR MAX TEMP:  89;

DAVENPORT IA   FAIR      76  65  68 N5        29.90S
6HR MIN TEMP:  76; 6HR MAX TEMP:  82;

CHICAGO IL     FAIR      79  59  50 W12       29.85R
6HR MIN TEMP:  78; 6HR MAX TEMP:  82;

EAU CLAIRE WI  PTSUNNY   68  63  84 SW7       29.88R
6HR MIN TEMP:  68; 6HR MAX TEMP:  71;

LA CROSSE WI   CLOUDY    72  64  76 CALM      29.89R
6HR MIN TEMP:  72; 6HR MAX TEMP:  74; 6HR PCP: TRACE;

$$

  *****  SOME NATIONAL WEATHER *****

CITY           SKY/WX    TMP DP  RH WIND       PRES   REMARKS
LA GUARDIA NY  TSTM      79  73  82 W6        29.79S
6HR MIN TEMP:  79; 6HR MAX TEMP:  83; 6HR PCP:  0.03;

RALEIGH NC     FAIR      90  73  57 SW12      29.85R HX  98
6HR MIN TEMP:  90; 6HR MAX TEMP:  98;

ATLANTA GA     FAIR      84  68  58 W7        29.99R
6HR MIN TEMP:  84; 6HR MAX TEMP:  90;

NEW ORLEANS LA FAIR      93  70  46 NW3       29.98R HX  99
6HR MIN TEMP:  91; 6HR MAX TEMP:  95;

OKLAHOMA CITY  FAIR      88  71  57 SW12      29.95S HX  94
6HR MIN TEMP:  87; 6HR MAX TEMP:  91;

ALBUQUERQUE NM FAIR      92  23   8 CALM      30.13F
6HR MIN TEMP:  85; 6HR MAX TEMP:  92;

SALT LAKE CITY FAIR      92  36  14 NW10      30.07F
6HR MIN TEMP:  86; 6HR MAX TEMP:  93;

LOS ANGELES CA FAIR      72  63  73 W14       29.94F
6HR MIN TEMP:  72; 6HR MAX TEMP:  75;

BOISE ID       FAIR



USA.gov is the U.S. government's official web portal to all federal, state and local government web resources and services.